9W2SHB-13 Weather Reports


Display with metric or nautical units.
time (UTC)temp
F
wind
direction
speed
MPH
gust
MPH
rain 1hr
in
rain 24hr
in
rain mn
in
humidity
%
barometer
mb
20260504213006 84 0 0.0 0.0 0.00 0.00 0.00 68 1028.0
20260504211508 84 0 0.0 0.0 0.00 0.00 0.00 68 1028.0
20260504210006 84 0 0.0 0.0 0.00 0.00 0.00 69 1028.0
20260504204507 84 0 0.0 0.0 0.00 0.00 0.00 69 1027.9
20260504203007 85 0 0.0 0.0 0.00 0.00 0.00 69 1027.8
20260504201506 85 0 0.0 0.0 0.00 0.00 0.00 70 1027.7
20260504200006 85 0 0.0 0.0 0.00 0.00 0.00 69 1028.0
20260504194507 85 0 0.0 0.0 0.00 0.00 0.00 69 1028.4
20260504193007 85 0 0.0 0.0 0.00 0.00 0.00 69 1028.4
20260504191506 85 0 0.0 0.0 0.00 0.00 0.00 69 1028.5
20260504190006 85 0 0.0 0.0 0.00 0.00 0.00 69 1028.7
20260504184507 85 0 0.0 0.0 0.00 0.00 0.00 69 1028.8
20260504183007 85 0 0.0 0.0 0.00 0.00 0.00 69 1028.9
20260504181507 85 0 0.0 0.0 0.00 0.00 0.00 69 1029.1
20260504180006 85 0 0.0 0.0 0.00 0.00 0.00 69 1029.4
20260504174507 85 0 0.0 0.0 0.00 0.00 0.00 69 1029.6
20260504173007 85 0 0.0 0.0 0.00 0.00 0.00 69 1029.6
20260504171507 85 0 0.0 0.0 0.00 0.00 0.00 69 1029.7
20260504081507 87 0 0.0 0.0 0.00 0.00 0.00 65 1028.0
20260504050007 90 0 0.0 0.0 0.00 0.00 0.00 62 1029.6
20260504044507 90 0 0.0 0.0 0.00 0.00 0.00 62 1029.7
20260504043007 89 0 0.0 0.0 0.00 0.00 0.00 62 1030.1
20260504041508 89 0 0.0 0.0 0.00 0.00 0.00 62 1030.3
20260504040006 89 0 0.0 0.0 0.00 0.00 0.00 62 1030.5
20260504034507 88 0 0.0 0.0 0.00 0.00 0.00 64 1030.7
20260504033007 88 0 0.0 0.0 0.00 0.00 0.00 64 1030.7
20260504031507 88 0 0.0 0.0 0.00 0.00 0.00 65 1030.7
20260504030006 88 0 0.0 0.0 0.00 0.00 0.00 65 1030.8
20260504024507 87 0 0.0 0.0 0.00 0.00 0.00 66 1030.7
20260504023007 87 0 0.0 0.0 0.00 0.00 0.00 67 1030.6
20260504021506 86 0 0.0 0.0 0.00 0.00 0.00 67 1030.8
20260504020007 86 0 0.0 0.0 0.00 0.00 0.00 67 1030.8
20260504014506 86 0 0.0 0.0 0.00 0.00 0.00 67 1030.8
20260504013007 86 0 0.0 0.0 0.00 0.00 0.00 68 1030.6
20260504011507 86 0 0.0 0.0 0.00 0.00 0.00 68 1030.5
20260504010007 86 0 0.0 0.0 0.00 0.00 0.00 68 1030.3
20260504004507 85 0 0.0 0.0 0.00 0.00 0.00 68 1030.2
20260504003006 85 0 0.0 0.0 0.00 0.00 0.00 67 1030.0
20260504001507 85 0 0.0 0.0 0.00 0.00 0.00 67 1029.8
20260504000007 85 0 0.0 0.0 0.00 0.00 0.00 68 1029.4
20260503234506 85 0 0.0 0.0 0.00 0.00 0.00 68 1029.3
20260503233007 85 0 0.0 0.0 0.00 0.00 0.00 66 1029.1
20260503231507 85 0 0.0 0.0 0.00 0.00 0.00 66 1029.1
20260503230007 85 0 0.0 0.0 0.00 0.00 0.00 66 1029.0
20260503224506 85 0 0.0 0.0 0.00 0.00 0.00 66 1028.8
20260503223006 85 0 0.0 0.0 0.00 0.00 0.00 66 1028.6
20260503221506 85 0 0.0 0.0 0.00 0.00 0.00 67 1028.5
20260503220007 85 0 0.0 0.0 0.00 0.00 0.00 66 1028.3
20260503214506 85 0 0.0 0.0 0.00 0.00 0.00 66 1028.2